[[{"header":{"parameterUnit":"m.s-1","parameterCategory":1,"la1":30.2991,"la2":30.254,"lo1":-89.0895,"lo2":-89.0444,"dy":0.0017,"dx":0.0017,"nx":28,"ny":28,"refTime":"2024-04-27T09:00:00:Z","depth":0,"parameterNumber":2,"parameterNumberName":"U-component_of_WINDS"},"data":[0,0,0,0,0,0,0,0,0,0,0,0,0,0,0,0,0,0,0,0,0,0,0,0,0,0,0,0,0,0,0,0,0,0,0,0,0,0,0,0,0,0,0,0,0,0,0,0,0,0,0,0,0,0,0,0,0,0,-5.5116,-5.5118,0,-5.5237,-5.5239,-5.524,-5.5218,-5.5216,-5.5213,-5.5211,-5.5334,-5.5339,-5.5344,0,0,0,0,0,0,0,0,0,0,0,0,0,-5.4866,-5.4871,-5.5116,-5.5118,-5.5119,-5.5237,-5.5239,-5.524,-5.5218,-5.5215,-5.5213,-5.521,-5.5332,-5.5338,-5.5345,0,0,0,0,0,0,0,0,0,0,0,0,0,-5.4979,-5.4872,-5.5116,-5.5122,-5.5124,-5.5237,-5.5239,-5.5241,-5.5219,-5.5215,-5.5212,-5.5209,-5.533,-5.5338,-5.5345,-5.5459,0,0,-5.5369,-5.5373,0,0,0,0,0,0,0,0,-5.4973,-5.4989,-5.512,-5.5122,-5.5124,-5.5209,-5.5195,-5.5314,-5.5219,-5.5183,-5.5211,-5.5208,-5.5295,-5.5305,-5.5335,-5.5464,-5.5469,-5.537,-5.5375,-5.5378,-5.5381,0,0,0,0,0,0,0,-5.4965,-5.4983,-5.5164,-5.5122,-5.5125,-5.5119,-5.5132,-5.5218,-5.5255,-5.5186,-5.5184,-5.5199,-5.5295,-5.5327,-5.5338,-5.5471,-5.537,-5.5377,-5.5382,-5.5385,-5.5699,-5.5702,0,0,0,0,0,0,-5.4955,-5.4977,-5.516,-5.5168,-5.5039,-5.5126,-5.514,-5.5185,-5.5254,-5.5262,-5.5202,-5.5198,-5.5316,-5.5329,-5.5342,-5.5477,-5.5378,-5.5386,-5.539,-5.5695,-5.57,-5.5704,0,0,0,0,0,0,-5.495,-5.4972,-5.5155,-5.5072,-5.5095,-5.5134,-5.5185,-5.5189,-5.5221,-5.5266,-5.5273,-5.5228,-5.5314,-5.5331,-5.543,-5.5481,-5.5389,-5.5396,-5.5691,-5.5697,-5.5702,-5.575,0,0,0,0,0,0,-5.4943,-5.497,-5.5013,-5.5073,-5.51,-5.5241,-5.5188,-5.5194,-5.5235,-5.5231,-5.5292,-5.5299,-5.5312,-5.5418,-5.5437,-5.5491,-5.5403,-5.5686,-5.5693,-5.57,-5.5744,-5.5757,-5.5767,0,0,0,0,0,-5.4934,-5.5022,-5.5016,-5.5038,-5.5155,-5.5244,-5.5259,-5.5272,-5.5239,-5.5283,-5.5312,-5.5298,-5.5474,-5.5428,-5.545,-5.5506,-5.5683,-5.5691,-5.5699,-5.5739,-5.5754,-5.5767,0,0,0,0,0,0,-5.4967,-5.503,-5.5024,-5.5134,-5.5184,-5.524,-5.5295,-5.5289,-5.5349,-5.5342,-5.5356,-5.537,-5.547,-5.5499,-5.5447,-5.5619,-5.5574,-5.5586,-5.5596,-5.5611,-5.5623,-5.5612,-5.5409,0,0,0,0,0,-5.4987,-5.5055,-5.5107,-5.5199,-5.5225,-5.5256,-5.5296,-5.5302,-5.5354,-5.5375,-5.5411,-5.5462,-5.5529,-5.5572,-5.5636,-5.575,-5.5762,-5.5799,-5.5811,-5.582,-5.583,-5.5891,-5.5908,-5.573,-5.573,-5.573,0,0,-5.5029,-5.5072,-5.5114,-5.5207,-5.5246,-5.5315,-5.5274,-5.5349,-5.54,-5.5386,-5.5481,-5.551,-5.5568,-5.5674,-5.5723,-5.5701,-5.5883,-5.5831,-5.5838,-5.5843,-5.5901,-5.5918,-5.5933,-5.5736,-5.5735,-5.5734,0,0,-5.514,-5.5181,-5.5261,-5.5302,-5.5363,-5.5383,-5.5403,-5.5461,-5.548,-5.5576,-5.5566,-5.5628,-5.5743,-5.5784,-5.582,-5.5949,-5.5937,-5.597,-5.6029,-5.6089,-5.6102,-5.6115,-5.6159,-5.6175,-5.598,-5.5981,-5.5981,0,-5.5184,-5.5288,-5.5303,-5.538,-5.542,-5.5412,-5.5493,-5.5532,-5.5611,-5.5639,-5.5614,-5.5758,-5.5797,-5.5912,-5.5943,-5.5974,-5.5995,-5.5961,-5.6099,-5.6112,-5.6124,-5.6166,-5.6182,-5.5984,-5.5984,-5.5983,-5.5983,0,-5.5339,-5.5411,-5.5469,-5.5545,-5.5593,-5.5671,-5.5698,-5.5745,-5.5748,-5.5771,-5.5868,-5.5915,-5.5988,-5.6017,-5.602,-5.6133,-5.6117,-5.6096,-5.605,-5.6144,-5.6183,-5.62,-5.5989,-5.5987,-5.5986,-5.5986,0,0,-5.5471,-5.5555,-5.5576,-5.561,-5.5677,-5.5734,-5.5812,-5.5884,-5.5923,-5.5978,-5.6043,-5.6142,-5.6123,-5.6164,-5.6173,-5.6225,-5.6322,-5.6198,-5.6199,-5.6217,-5.6447,-5.646,-5.6478,-5.6316,-5.632,-5.6322,-5.6441,0,-5.5586,-5.5724,-5.574,-5.5863,-5.5929,-5.5924,-5.5992,-5.6041,-5.6065,-5.6125,-5.6153,-5.6221,-5.6192,-5.6217,-5.6269,-5.6299,-5.6368,-5.6291,-5.6375,-5.6378,-5.6357,-5.6499,-5.6513,-5.6623,-5.6457,-5.646,-5.6462,0,-5.5738,-5.5797,-5.5927,-5.5985,-5.6013,-5.6074,-5.6141,-5.6199,-5.6255,-5.6269,-5.6316,-5.6318,-5.6398,-5.6352,-5.6463,-5.641,-5.6446,-5.6467,-5.6471,-5.6477,-5.6423,-5.6506,-5.6659,-5.6674,-5.6486,-5.6484,-5.6483,0,-5.5818,-5.5931,-5.6022,-5.6052,-5.6123,-5.6166,-5.6197,-5.6249,-5.6292,-5.6351,-5.6378,-5.6446,-5.6483,-5.6535,-5.6556,-5.652,-5.6665,-5.662,-5.6678,-5.6677,-5.6705,-5.6702,-5.6863,-5.6734,-5.6734,-5.6733,-5.6733,0,-5.5943,-5.6022,-5.6059,-5.6115,-5.6203,-5.6222,-5.6309,-5.6338,-5.6385,-5.6446,-5.6447,-5.6505,-5.653,-5.6592,-5.6609,-5.6697,-5.6714,-5.6727,-5.673,-5.6725,-5.6723,-5.6746,-5.6738,-5.6738,-5.6737,-5.6736,-5.6735,0,-5.6046,-5.6074,-5.6173,-5.6233,-5.625,-5.6311,-5.6362,-5.6416,-5.6441,-5.6519,-5.6538,-5.6577,-5.665,-5.6677,-5.6766,-5.6777,-5.6878,-5.6877,-5.6859,-5.6859,-5.6914,-5.6907,-5.7092,-5.7116,-5.6974,-5.6976,-5.6977,0,-5.6122,-5.6182,-5.6248,-5.6289,-5.6322,-5.6389,-5.6432,-5.6454,-5.6499,-5.6567,-5.6613,-5.6686,-5.6744,-5.6861,-5.6897,-5.6965,-5.6963,-5.7023,-5.6972,-5.6966,-5.696,-5.6955,-5.696,-5.7031,-5.7032,-5.7034,-5.7035,0,-5.6253,-5.6265,-5.6327,-5.6395,-5.6446,-5.65,-5.6553,-5.6587,-5.6617,-5.6667,-5.6742,-5.6787,-5.6878,-5.695,-5.702,-5.7052,-5.7048,-5.7051,-5.7067,-5.7061,-5.7047,-5.7053,-5.6881,-5.7045,-5.7044,-5.7044,-5.7043,-5.7043,-5.6343,-5.6396,-5.6451,-5.652,-5.6562,-5.6612,-5.6665,-5.6697,-5.676,-5.6835,-5.6845,-5.6924,-5.6979,-5.7072,-5.7108,-5.7171,-5.7154,-5.7178,-5.7184,-5.7189,-5.7191,-5.704,-5.7184,-5.7184,-5.7183,-5.7183,-5.7183,0,-5.6472,-5.6508,-5.6572,-5.6645,-5.67,-5.6693,-5.6751,-5.6797,-5.6867,-5.6919,-5.6977,-5.7062,-5.7132,-5.7175,-5.7245,-5.7286,-5.7286,-5.7304,-5.7299,-5.7306,-5.7203,-5.7181,-5.7303,-5.7303,-5.7302,-5.7302,-5.7302,-5.7302,-5.6546,-5.6634,-5.6653,-5.6762,-5.6797,-5.6875,-5.6909,-5.6954,-5.6995,-5.709,-5.7148,-5.7176,-5.7224,-5.7298,-5.7361,-5.7372,-5.7397,-5.7415,-5.7424,-5.7326,-5.7314,-5.7302,-5.7281,-5.7421,-5.7421,-5.7522,-5.7523,-5.7523]},{"header":{"parameterUnit":"m.s-1","parameterCategory":1,"la1":30.2991,"la2":30.254,"lo1":-89.0895,"lo2":-89.0444,"dy":0.0017,"dx":0.0017,"nx":28,"ny":28,"refTime":"2024-04-27T09:00:00:Z","depth":0,"parameterNumber":3,"parameterNumberName":"V-component_of_WINDS"},"data":[0,0,0,0,0,0,0,0,0,0,0,0,0,0,0,0,0,0,0,0,0,0,0,0,0,0,0,0,0,0,0,0,0,0,0,0,0,0,0,0,0,0,0,0,0,0,0,0,0,0,0,0,0,0,0,0,0,0,4.6752,4.6752,0,4.6775,4.6775,4.6775,4.6703,4.67,4.6698,4.6696,4.6717,4.6719,4.6722,0,0,0,0,0,0,0,0,0,0,0,0,0,4.6643,4.6646,4.6752,4.6752,4.6752,4.6775,4.6775,4.6775,4.6703,4.67,4.6698,4.6695,4.6716,4.6719,4.6722,0,0,0,0,0,0,0,0,0,0,0,0,0,4.6681,4.6647,4.6752,4.6719,4.6716,4.6775,4.6775,4.6775,4.6704,4.67,4.6697,4.6694,4.6715,4.6719,4.6723,4.6813,0,0,4.6734,4.6736,0,0,0,0,0,0,0,0,4.6679,4.6685,4.6724,4.6721,4.6719,4.6733,4.6744,4.6788,4.6704,4.6708,4.6696,4.6692,4.6725,4.6727,4.6739,4.6814,4.6814,4.6735,4.6737,4.6739,4.674,0,0,0,0,0,0,0,4.6676,4.6683,4.6761,4.6724,4.6721,4.6703,4.6704,4.6752,4.6735,4.6708,4.6703,4.6706,4.6722,4.6735,4.6739,4.6815,4.6735,4.6738,4.6741,4.6742,4.6965,4.6968,0,0,0,0,0,0,4.6678,4.6682,4.676,4.6761,4.669,4.6707,4.6709,4.6731,4.6734,4.6731,4.6709,4.6703,4.673,4.6734,4.6739,4.6845,4.6739,4.6743,4.6745,4.6961,4.6966,4.697,0,0,0,0,0,0,4.6676,4.6686,4.6759,4.672,4.6728,4.6713,4.6738,4.6733,4.6746,4.6735,4.6731,4.6726,4.6728,4.6734,4.6795,4.6844,4.6744,4.6748,4.6957,4.6963,4.6968,4.7057,0,0,0,0,0,0,4.6673,4.6686,4.672,4.6722,4.6731,4.6815,4.6741,4.6736,4.6753,4.6745,4.6749,4.6747,4.6726,4.679,4.6799,4.6848,4.6751,4.6953,4.696,4.6966,4.7049,4.7065,4.7078,0,0,0,0,0,4.667,4.6743,4.6722,4.6732,4.6773,4.6818,4.6823,4.6798,4.6758,4.6792,4.6785,4.6747,4.6838,4.6797,4.6807,4.6857,4.6949,4.6958,4.6966,4.7043,4.7062,4.7077,0,0,0,0,0,0,4.6746,4.6743,4.6719,4.6796,4.6808,4.6806,4.6848,4.6819,4.6842,4.6833,4.6801,4.6802,4.6869,4.687,4.6824,4.6945,4.6887,4.6897,4.6942,4.696,4.6974,4.6971,4.6754,0,0,0,0,0,4.6773,4.681,4.6805,4.6873,4.688,4.6864,4.6882,4.6862,4.6873,4.6878,4.6875,4.6887,4.6918,4.6939,4.6967,4.705,4.7049,4.709,4.7104,4.7115,4.7124,4.7168,4.7186,4.6996,4.6996,4.6996,0,0,4.6826,4.6829,4.6854,4.6888,4.6895,4.6935,4.6868,4.6912,4.6941,4.6884,4.6942,4.6941,4.6952,4.7024,4.7056,4.7026,4.7177,4.7126,4.7135,4.7137,4.7178,4.7196,4.7212,4.7002,4.7001,4.7,0,0,4.6943,4.695,4.7007,4.7017,4.7029,4.7018,4.7032,4.7035,4.7032,4.709,4.7049,4.7082,4.7137,4.7146,4.7158,4.7282,4.7247,4.7292,4.7365,4.7408,4.7423,4.7436,4.748,4.7496,4.7301,4.7301,4.7301,0,4.7008,4.7066,4.704,4.7088,4.7104,4.7056,4.7114,4.7124,4.7144,4.7156,4.7123,4.7192,4.7195,4.727,4.73,4.7312,4.7326,4.729,4.7423,4.7436,4.7448,4.7489,4.7506,4.7307,4.7306,4.7305,4.7305,0,4.7145,4.7186,4.7231,4.7254,4.7275,4.7327,4.7309,4.7334,4.7312,4.7305,4.7365,4.7368,4.7396,4.7413,4.7392,4.7484,4.7466,4.7429,4.7369,4.7472,4.751,4.7525,4.7314,4.7312,4.7311,4.7309,0,0,4.7309,4.7319,4.7335,4.7345,4.7357,4.7387,4.7438,4.7467,4.7489,4.7505,4.7546,4.7594,4.7561,4.7574,4.7554,4.7593,4.769,4.7551,4.755,4.7576,4.7792,4.782,4.7838,4.7668,4.7671,4.7674,4.7791,0,4.7425,4.7512,4.7491,4.7577,4.7615,4.7571,4.7615,4.7626,4.7621,4.7651,4.7645,4.768,4.7633,4.7641,4.7677,4.7671,4.7733,4.7662,4.7705,4.7707,4.7703,4.7858,4.7887,4.7998,4.7806,4.7809,4.781,0,4.757,4.7594,4.7684,4.769,4.7705,4.7745,4.7771,4.7801,4.7813,4.7806,4.7823,4.7796,4.7845,4.7787,4.7855,4.7807,4.7824,4.7824,4.7827,4.7829,4.7764,4.7864,4.8032,4.8049,4.7834,4.7832,4.783,0,4.768,4.7735,4.7796,4.7806,4.7815,4.7844,4.7849,4.7858,4.7877,4.7899,4.7911,4.7939,4.7953,4.7975,4.7956,4.7915,4.8027,4.7966,4.8022,4.8022,4.8046,4.8044,4.8219,4.8059,4.8059,4.8058,4.8058,0,4.7811,4.7868,4.7846,4.7883,4.7946,4.7921,4.7984,4.7983,4.7992,4.8029,4.7993,4.8027,4.8001,4.8033,4.8019,4.8077,4.8084,4.8079,4.8074,4.8082,4.8082,4.8091,4.8083,4.8063,4.8062,4.8061,4.806,0,4.7944,4.7931,4.7995,4.7999,4.8002,4.8048,4.805,4.8085,4.8078,4.8124,4.8134,4.8122,4.8159,4.8142,4.818,4.8171,4.8245,4.8231,4.8241,4.8237,4.8293,4.8288,4.8479,4.8502,4.8328,4.833,4.8331,0,4.8027,4.807,4.8079,4.8102,4.8109,4.8146,4.8166,4.8144,4.8166,4.8184,4.8216,4.825,4.8276,4.8336,4.833,4.8359,4.8345,4.841,4.8349,4.8355,4.8345,4.8342,4.8346,4.8421,4.8423,4.8425,4.8426,0,4.8176,4.8169,4.8199,4.8228,4.8253,4.8275,4.8293,4.8313,4.8292,4.8319,4.8356,4.8376,4.8416,4.845,4.8476,4.848,4.845,4.8446,4.846,4.8468,4.8472,4.847,4.8274,4.8441,4.844,4.8439,4.8438,4.8437,4.8286,4.8323,4.8335,4.8371,4.8383,4.8401,4.8434,4.8432,4.8463,4.8494,4.848,4.8523,4.8535,4.8567,4.8576,4.8609,4.8583,4.8604,4.8609,4.8614,4.8622,4.8468,4.8614,4.8613,4.8613,4.8612,4.8612,0,4.8433,4.844,4.8473,4.85,4.8529,4.85,4.8519,4.8544,4.8583,4.8597,4.8624,4.8667,4.87,4.8698,4.8729,4.8756,4.8743,4.8764,4.8762,4.8763,4.8643,4.8627,4.8775,4.8775,4.8774,4.8774,4.8774,4.8774,4.8513,4.8573,4.8568,4.8633,4.8639,4.8683,4.8696,4.8713,4.8724,4.8775,4.8802,4.8801,4.8809,4.884,4.8869,4.8867,4.888,4.8907,4.89,4.8788,4.8771,4.8756,4.8741,4.891,4.891,4.9017,4.9018,4.9019]}]]